Temperature
21 22 23 24 23 21 21 20 20 21 20 22 21 21 21 22 22 22 22 23 23 23 23 22 22 21 21 20 20 19 19 19 18 18 18 17 17 17 16 16 16 16 16 16
22 22 23 24 23 22 22 21 21 22 22 21 21 21 21 21 22 22 22 23 23 23 23 22 22 22 21 20 20 19 19 18 18 18 17 17 17 16 16 16 16 15 15 15
20 22 23 23 23 22 22 21 21 22 22 20 19 19 20 21 21 22 22 23 23 23 23 22 22 21 21 20 20 19 19 18 18 18 17 17 16 16 16 16 15 15 15 15
18 21 22 21 21 22 22 21 20 21 20 19 20 21 21 22 22 22 22 23 23 23 22 22 21 21 20 20 19 19 18 18 18 17 17 16 16 16 15 15 15 15 14 14
16 19 21 22 22 21 21 21 20 19 19 19 20 20 20 21 22 22 23 23 23 23 22 22 21 21 20 19 19 18 18 18 17 17 16 16 16 15 15 15 14 14 14 13
16 19 20 21 21 21 21 21 20 19 18 19 20 19 19 21 21 22 22 22 22 22 21 21 20 20 19 19 18 18 18 17 17 16 16 16 15 15 15 14 14 14 13 13
16 18 18 19 20 21 21 20 20 19 19 19 19 19 21 21 21 21 21 21 21 21 21 20 20 19 19 18 18 18 17 17 16 16 16 15 15 15 14 14 13 13 13 12
15 18 19 19 19 19 19 20 20 20 20 20 20 20 20 20 21 21 21 20 20 20 20 19 19 19 19 18 18 17 17 16 16 15 15 15 14 14 14 13 13 12 12 12
15 16 17 17 18 19 20 19 19 20 20 20 20 19 19 20 20 20 20 20 19 19 19 19 18 18 18 18 17 17 16 16 15 15 14 14 14 13 13 13 12 12 12 11
14 15 16 17 18 19 19 20 20 20 20 20 20 19 19 19 19 19 19 19 19 19 18 18 18 17 17 17 16 16 16 15 15 15 14 14 13 13 12 12 12 12 11 11
14 15 16 17 18 19 19 20 20 19 19 19 19 19 19 18 18 18 18 18 18 18 18 17 17 16 16 16 16 15 15 15 14 14 14 13 13 12 12 12 11 11 11 11
14 15 15 16 17 18 19 19 19 19 19 19 19 19 18 18 18 18 17 17 17 17 17 17 16 16 16 15 15 15 15 14 14 13 13 12 12 12 11 11 11 10 10 10
16 16 16 17 17 18 18 18 18 18 18 18 18 18 18 17 17 17 17 17 17 17 16 16 16 15 15 15 14 14 14 14 13 13 13 12 12 12 11 11 10 10 10 9
16 16 16 17 17 17 17 18 18 17 17 18 18 18 17 17 17 16 16 16 16 16 16 15 15 15 14 14 14 14 13 13 13 12 12 12 11 11 11 11 10 10 9 9
16 17 17 17 17 17 17 17 17 17 17 17 17 17 17 16 16 16 16 15 15 15 15 15 14 14 14 14 13 13 13 12 12 12 11 11 11 11 10 10 10 9 9 9
16 16 16 16 16 16 16 16 16 16 16 16 16 16 16 16 15 15 15 15 15 14 14 14 14 14 13 13 13 12 12 12 12 11 11 11 10 10 10 10 9 9 9 9
16 15 16 16 16 16 16 16 16 16 16 16 15 15 15 15 15 15 14 14 14 14 14 14 13 13 13 13 12 12 12 12 11 11 11 11 10 10 10 9 9 9 9 9
16 16 16 16 16 16 16 16 16 16 16 15 15 15 14 14 14 14 14 14 14 13 13 13 13 13 12 12 12 12 12 11 11 11 11 10 10 10 9 9 9 9 9 8
15 16 16 16 15 15 15 15 15 15 15 15 15 15 14 14 14 14 13 13 13 13 13 13 12 12 12 12 12 12 11 11 11 10 10 10 9 9 9 9 9 9 8 8
15 15 15 15 15 15 15 15 15 15 15 15 14 14 14 14 13 13 13 13 13 13 12 12 12 12 12 11 11 11 11 11 10 10 10 10 9 9 9 9 9 9 8 8
15 15 15 14 14 14 14 14 14 14 14 14 14 14 13 13 13 12 12 12 12 12 12 12 12 11 11 11 11 11 10 10 10 10 10 10 9 9 9 9 9 9 9 8
14 14 14 14 14 14 14 14 14 14 14 14 13 13 13 13 12 12 12 12 11 11 11 11 11 11 11 11 10 10 10 10 10 10 10 10 9 9 9 9 9 9 9 8
13 13 13 13 13 13 13 13 13 13 13 13 13 13 12 12 12 12 11 11 11 11 11 11 11 11 11 10 10 10 10 10 10 10 10 10 10 10 9 9 9 9 9 8
12 13 13 13 13 13 13 13 13 13 12 12 12 12 12 12 11 11 11 11 11 11 10 10 10 10 10 10 10 10 10 10 10 10 10 10 10 9 9 9 9 9 9 8
11 12 12 12 12 12 12 12 12 12 11 11 11 11 11 11 11 11 11 10 10 10 10 10 10 10 10 10 10 10 10 10 10 10 10 10 9 9 9 9 9 9 8 8
11 11 11 11 11 11 11 11 11 11 11 10 10 10 10 10 10 10 10 10 10 10 10 10 10 10 10 10 10 10 10 10 10 10 9 9 9 9 9 9 9 8 8 8
10 10 10 10 10 10 10 10 10 10 10 10 10 10 10 10 10 10 10 10 10 10 10 10 10 10 10 10 10 10 10 9 9 9 9 9 9 9 9 8 8 8 8 8
Wind_Speed
5 4 4 4 6 8 7 9 9 9 9 10 9 8 6 5 6 7 7 7 8 8 7 7 7 6 6 6 6 6 6 5 4 3 3 4 4 4 4 4 4 4 4 5
2 2 4 3 4 7 5 5 5 4 8 7 4 3 4 6 8 8 8 8 8 7 8 7 7 7 6 6 6 6 6 5 4 4 4 4 4 4 4 5 4 5 5 5
3 1 3 3 4 6 4 4 6 7 8 2 3 5 6 6 7 8 8 7 7 7 7 7 6 6 6 6 7 7 6 5 5 5 5 4 4 5 5 4 5 6 6 6
4 4 5 8 2 4 5 2 3 4 4 5 4 3 3 3 6 6 6 6 7 6 6 6 6 6 5 6 7 7 6 5 5 6 6 5 5 6 5 5 5 5 6 6
5 5 3 4 1 3 4 2 1 3 2 2 4 5 2 1 3 4 5 5 5 6 6 6 7 7 7 6 6 6 6 5 5 6 7 6 6 5 5 5 6 5 5 6
5 6 7 7 2 1 4 2 2 3 4 4 5 3 3 1 3 4 4 4 5 6 6 7 6 8 9 7 6 5 4 5 5 6 7 7 6 6 5 6 6 6 7 6
5 4 6 6 4 2 4 6 3 4 4 5 4 4 2 3 5 6 6 6 7 7 7 6 7 8 9 7 5 5 6 6 6 6 7 7 7 5 6 7 7 7 7 6
5 4 6 3 1 4 5 2 2 3 3 4 3 4 4 5 6 7 8 8 7 7 6 6 7 8 8 6 5 6 7 7 6 6 6 7 7 6 6 7 7 6 6 5
6 6 4 2 3 2 3 3 1 2 2 5 6 5 5 5 5 6 7 7 7 8 8 6 5 7 8 6 7 7 7 7 7 6 6 6 7 7 5 5 5 4 4 4
1 3 3 2 1 1 2 2 2 3 5 6 7 7 7 6 5 5 5 6 6 8 7 5 4 5 6 7 8 8 8 7 7 7 7 6 5 5 5 4 4 4 4 3
1 3 2 3 2 1 3 5 7 6 5 6 8 7 7 6 5 5 4 4 5 6 6 5 5 5 6 7 8 9 8 7 6 6 7 6 5 4 4 3 3 4 3 3
5 5 3 3 2 1 4 5 6 7 5 4 5 6 6 6 5 5 4 4 5 5 5 5 5 5 5 6 8 9 8 7 6 5 6 6 6 6 8 6 7 6 5 4
4 2 2 2 1 2 4 4 4 4 5 5 4 5 6 5 4 5 4 4 5 5 5 5 5 5 5 6 7 7 7 7 6 6 6 6 6 6 5 5 8 7 6 7
2 2 1 1 2 3 6 6 6 4 4 4 4 5 6 5 5 5 4 4 5 5 5 5 5 5 5 6 7 7 7 7 7 5 6 5 5 5 5 5 4 3 4 5
0 2 3 2 4 4 4 5 6 4 3 3 3 5 5 5 4 4 4 4 5 5 5 5 5 4 4 6 7 7 7 6 5 5 5 5 5 5 5 5 4 3 3 3
1 3 4 4 4 3 4 4 5 4 3 2 3 3 4 4 5 4 4 4 5 4 4 5 5 5 5 6 7 6 6 9 8 6 6 5 5 5 5 4 4 3 3 2
4 3 4 4 4 3 3 3 4 4 3 3 3 3 4 5 5 4 3 3 4 4 4 5 5 5 6 7 7 6 5 7 9 7 6 6 5 5 5 4 4 3 2 2
5 5 5 6 5 5 4 4 4 5 4 4 4 4 4 5 5 4 4 4 4 3 3 4 5 6 6 6 6 5 6 6 5 6 5 5 5 5 5 5 4 4 2 2
2 3 3 3 4 4 4 4 4 4 4 5 6 5 4 4 4 4 5 5 4 4 2 3 7 6 6 6 7 5 6 6 5 5 5 6 6 5 5 5 5 4 4 3
3 3 4 3 3 3 3 2 3 3 3 5 5 4 4 4 5 5 5 3 3 3 4 5 5 5 5 6 7 5 6 6 6 6 5 5 5 5 5 5 5 4 4 4
3 3 3 2 1 1 2 3 3 4 4 5 6 6 5 5 5 5 5 3 1 3 4 5 4 4 4 5 7 5 6 6 6 6 6 5 5 5 5 5 5 5 5 4
2 2 1 1 1 0 0 2 3 4 4 4 4 5 5 5 5 4 3 3 3 5 4 3 3 5 6 7 5 5 5 6 5 5 5 5 5 5 5 5 5 5 5 4
1 1 1 1 1 0 1 1 2 4 4 4 5 6 6 5 4 5 3 2 3 5 4 3 4 7 8 5 5 5 5 5 5 5 5 5 5 5 5 5 5 5 4 4
1 1 1 1 1 2 1 1 2 2 3 3 3 4 5 4 2 2 3 4 5 5 3 4 7 7 7 4 4 4 4 4 4 5 5 4 4 4 4 5 5 5 5 5
1 1 1 2 2 1 1 2 3 3 4 3 3 3 3 3 3 3 3 4 6 6 3 4 6 7 5 4 4 4 4 4 4 5 4 4 4 4 4 4 4 4 4 4
1 1 0 0 1 1 2 3 3 3 3 3 2 2 3 3 4 4 3 4 5 5 4 3 3 4 3 4 4 4 3 4 4 4 4 4 4 4 4 4 4 4 4 4
2 1 1 1 1 1 2 3 3 3 3 4 3 2 3 3 4 4 4 4 4 3 3 3 3 3 3 3 3 3 3 3 3 3 3 3 3 3 4 4 4 3 3 3
Wind_Direction
205 201 170 174 170 166 168 175 177 218 222 244 239 224 211 179 160 156 164 167 171 171 167 163 160 161 159 157 153 148 145 147 151 138 122 109 98 90 83 78 73 72 69 58
192 198 182 177 184 175 182 171 198 213 246 252 247 182 172 170 172 180 184 180 177 172 166 166 168 165 159 157 154 146 146 149 138 125 114 107 101 90 84 80 78 76 70 64
200 241 111 227 208 177 173 177 172 202 235 223 186 191 192 184 180 190 190 181 177 178 172 168 168 166 166 164 152 147 147 143 135 128 120 114 108 94 84 78 79 75 69 68
135 116 193 239 257 167 151 178 212 226 236 203 200 184 168 167 181 191 186 181 178 173 164 156 152 150 146 145 145 143 141 137 132 128 120 107 100 94 85 78 79 75 70 72
125 158 235 285 209 152 149 245 242 205 187 133 117 87 34 113 162 180 179 173 174 168 158 148 146 143 135 132 133 135 139 138 135 129 123 115 107 102 99 94 83 75 71 67
122 141 204 232 251 221 120 276 261 178 166 146 119 128 250 233 123 114 114 125 134 134 127 131 134 131 128 128 129 132 133 131 126 120 121 120 116 107 99 99 94 86 74 64
136 168 242 252 283 107 158 233 232 185 178 159 168 193 192 124 117 116 110 108 114 122 124 128 129 130 132 132 140 135 124 119 116 118 119 119 112 107 108 103 95 86 79 64
135 153 235 289 92 159 209 220 167 166 165 151 134 105 99 104 114 115 110 106 114 121 116 115 126 133 134 142 139 127 125 123 118 114 117 119 115 110 110 109 101 93 85 69
183 203 243 272 227 238 172 160 171 152 139 136 124 105 93 91 101 108 112 113 115 119 115 111 124 138 144 144 132 128 123 121 116 109 101 109 118 121 114 110 111 107 99 87
270 288 301 318 321 9 128 139 115 118 119 116 114 113 105 95 89 93 99 109 113 116 119 121 121 119 127 131 132 130 129 127 123 119 110 103 105 114 118 119 120 118 115 107
254 281 339 354 356 50 86 94 96 92 95 113 119 118 118 116 109 101 98 100 113 123 129 132 124 117 126 134 135 134 134 132 128 125 125 117 103 90 110 109 136 141 140 137
214 228 200 240 281 106 99 96 107 107 96 91 113 122 117 117 116 113 114 117 117 119 125 128 127 125 128 137 140 139 140 140 139 135 130 127 119 92 61 77 91 106 119 127
223 229 208 234 63 94 102 94 84 99 123 119 106 115 116 118 117 116 120 124 130 128 128 130 131 130 133 137 140 142 145 145 142 141 140 140 137 134 119 71 70 81 98 112
197 141 102 87 101 94 105 101 91 78 89 110 119 113 111 110 111 118 128 136 129 124 127 132 129 129 137 136 136 136 136 140 141 143 144 143 142 140 137 136 122 78 61 95
93 144 158 127 93 92 97 104 101 97 96 89 99 109 116 121 125 125 124 120 115 118 127 132 129 127 128 133 136 138 139 141 139 136 135 135 135 133 132 131 130 122 103 79
124 105 118 116 116 121 116 115 127 142 143 129 120 122 122 123 121 119 121 125 129 143 147 140 137 139 136 135 134 135 140 145 143 140 139 139 139 138 138 137 135 136 141 140
157 167 159 157 167 172 162 151 154 165 167 159 152 131 121 120 121 127 135 137 138 148 153 149 146 144 143 142 139 141 140 148 146 143 149 152 151 151 151 150 153 160 174 177
207 200 182 174 176 182 177 166 168 170 174 170 146 140 148 154 161 164 157 137 124 120 130 141 138 136 139 141 139 139 143 147 151 153 153 156 155 155 155 160 169 176 177 169
162 154 145 156 172 184 188 188 181 174 166 157 156 166 173 170 166 157 148 146 152 159 160 137 134 137 144 150 145 143 146 148 150 152 156 156 156 161 168 175 183 189 188 185
113 119 122 132 151 165 179 190 168 158 163 157 155 159 165 169 161 153 148 162 190 181 159 151 146 146 151 154 146 149 153 157 159 161 163 169 173 177 181 188 193 195 198 201
99 103 108 122 124 134 169 178 173 176 170 165 167 174 177 170 161 157 155 171 197 146 146 147 149 154 154 153 149 154 159 163 169 173 177 182 184 184 189 194 197 198 200 203
84 99 111 132 135 122 154 163 163 162 155 160 160 158 157 155 154 152 159 179 174 155 151 159 161 159 157 151 154 158 164 171 175 177 181 184 186 188 192 194 196 198 198 199
81 92 92 98 129 154 34 112 144 147 154 166 169 168 167 164 163 161 171 171 156 156 154 162 161 156 152 150 154 160 165 172 179 184 186 189 192 194 195 197 199 198 196 197
72 69 66 73 99 104 93 84 107 119 131 140 151 152 147 143 134 130 140 147 148 144 146 159 159 157 153 155 160 165 171 180 186 189 190 193 194 194 195 196 195 195 198 200
89 85 85 100 115 145 150 120 104 108 115 114 112 117 127 135 142 145 138 143 145 138 134 151 156 158 162 161 164 171 181 189 190 188 188 188 190 190 190 190 193 193 196 201
84 90 97 184 182 158 143 135 134 136 130 121 103 99 104 107 120 127 130 137 139 136 138 147 158 157 159 161 165 172 181 184 184 183 183 185 186 187 186 186 185 190 195 200
78 76 81 67 62 93 124 130 134 137 139 137 126 116 117 119 123 128 128 132 135 137 141 143 144 145 147 150 154 161 169 170 166 165 165 167 169 172 175 174 180 185 192 198
Height
1512 1509 1509 1510 1514 1519 1522 1529 1537 1531 1529 1516 1510 1509 1509 1511 1514 1517 1520 1523 1525 1528 1531 1534 1537 1539 1542 1544 1546 1547 1548 1549 1550 1550 1551 1552 1552 1552 1552 1551 1551 1551 1551 1550
1511 1508 1508 1509 1510 1514 1515 1519 1521 1520 1520 1508 1507 1508 1509 1511 1513 1516 1518 1521 1524 1527 1530 1533 1536 1538 1540 1542 1544 1546 1548 1549 1549 1550 1550 1551 1551 1551 1551 1551 1551 1551 1550 1550
1521 1511 1510 1519 1510 1510 1511 1512 1514 1518 1512 1506 1506 1506 1507 1509 1511 1513 1516 1519 1523 1526 1529 1532 1535 1537 1540 1541 1543 1545 1547 1548 1548 1549 1550 1550 1551 1551 1551 1551 1551 1550 1550 1550
1524 1519 1531 1517 1503 1503 1506 1508 1507 1506 1505 1504 1504 1505 1507 1508 1510 1512 1515 1518 1522 1525 1528 1531 1534 1536 1538 1540 1542 1544 1545 1547 1548 1548 1549 1550 1550 1550 1551 1551 1551 1550 1550 1550
1528 1529 1522 1510 1502 1503 1507 1508 1504 1504 1503 1503 1504 1505 1507 1508 1510 1512 1514 1517 1521 1524 1527 1530 1532 1535 1537 1539 1541 1543 1544 1545 1547 1547 1548 1549 1549 1550 1550 1551 1551 1551 1551 1551
1525 1527 1530 1512 1500 1499 1504 1511 1503 1502 1502 1503 1503 1510 1508 1507 1508 1511 1514 1517 1520 1523 1526 1529 1532 1534 1536 1539 1540 1541 1543 1544 1546 1546 1547 1548 1549 1550 1550 1551 1551 1551 1551 1551
1521 1522 1517 1503 1499 1499 1514 1511 1501 1500 1501 1502 1503 1505 1506 1507 1509 1511 1514 1516 1520 1523 1525 1528 1531 1533 1535 1537 1539 1541 1542 1543 1545 1546 1547 1548 1549 1550 1550 1550 1551 1551 1551 1551
1521 1521 1518 1499 1498 1502 1504 1499 1499 1499 1500 1501 1502 1504 1505 1507 1509 1511 1513 1516 1519 1522 1525 1528 1530 1533 1534 1536 1538 1540 1541 1543 1545 1545 1546 1548 1549 1549 1550 1550 1551 1551 1552 1552
1510 1510 1501 1497 1497 1497 1497 1498 1499 1499 1500 1501 1502 1504 1506 1508 1510 1512 1515 1517 1520 1522 1525 1527 1529 1532 1533 1535 1537 1539 1541 1542 1543 1545 1546 1547 1548 1549 1550 1550 1551 1551 1551 1552
1505 1501 1498 1497 1497 1497 1497 1498 1499 1500 1501 1502 1503 1505 1507 1510 1513 1514 1516 1518 1520 1523 1524 1527 1529 1530 1532 1534 1536 1538 1540 1541 1543 1544 1545 1547 1548 1549 1549 1549 1550 1551 1551 1552
1504 1501 1498 1498 1497 1497 1498 1499 1500 1501 1503 1504 1505 1506 1508 1511 1513 1515 1517 1519 1521 1523 1524 1526 1528 1530 1532 1533 1535 1537 1539 1540 1542 1543 1544 1546 1547 1548 1548 1549 1550 1551 1552 1552
1503 1499 1499 1499 1498 1498 1499 1500 1501 1502 1504 1505 1506 1507 1509 1511 1513 1515 1518 1519 1521 1522 1524 1526 1528 1529 1531 1533 1534 1536 1537 1539 1540 1542 1543 1544 1546 1547 1548 1549 1550 1551 1551 1552
1497 1497 1498 1498 1499 1500 1500 1502 1503 1504 1505 1506 1508 1509 1510 1511 1513 1514 1517 1519 1520 1522 1523 1525 1527 1528 1530 1531 1533 1535 1536 1538 1539 1541 1542 1543 1544 1546 1547 1549 1549 1550 1551 1552
1496 1497 1498 1498 1499 1500 1501 1502 1504 1506 1507 1508 1508 1509 1510 1511 1513 1514 1517 1518 1520 1521 1523 1525 1526 1528 1529 1531 1532 1534 1536 1537 1539 1540 1541 1543 1544 1545 1546 1547 1548 1549 1550 1552
1496 1497 1497 1498 1499 1501 1502 1504 1504 1506 1508 1508 1509 1509 1510 1512 1513 1515 1516 1517 1519 1521 1523 1524 1526 1527 1528 1530 1532 1533 1535 1536 1538 1539 1541 1542 1544 1545 1546 1547 1548 1549 1550 1552
1496 1496 1497 1498 1499 1501 1503 1504 1505 1506 1507 1508 1509 1510 1511 1512 1513 1514 1516 1517 1519 1521 1522 1523 1525 1526 1528 1529 1531 1532 1534 1536 1537 1538 1540 1542 1543 1545 1546 1547 1548 1549 1550 1552
1495 1495 1496 1497 1499 1500 1502 1503 1504 1505 1506 1507 1508 1509 1510 1511 1512 1514 1515 1517 1519 1520 1522 1523 1524 1526 1527 1529 1530 1532 1533 1535 1536 1538 1540 1541 1543 1544 1546 1548 1549 1550 1551 1552
1494 1494 1495 1496 1498 1499 1501 1502 1503 1503 1505 1506 1507 1509 1510 1511 1512 1513 1515 1516 1518 1519 1520 1522 1523 1525 1527 1528 1530 1531 1533 1534 1536 1537 1539 1541 1542 1544 1545 1547 1549 1550 1551 1553
1492 1492 1494 1496 1498 1498 1499 1500 1501 1502 1503 1504 1506 1507 1509 1510 1511 1512 1513 1515 1516 1517 1519 1521 1522 1524 1526 1527 1529 1531 1532 1534 1535 1537 1539 1540 1542 1544 1545 1547 1548 1550 1551 1552
1491 1492 1494 1495 1496 1497 1498 1499 1499 1499 1501 1502 1504 1506 1507 1508 1509 1511 1512 1514 1515 1517 1518 1519 1521 1523 1525 1526 1528 1530 1532 1533 1535 1536 1538 1540 1541 1543 1544 1546 1548 1549 1550 1551
1490 1491 1492 1494 1495 1496 1496 1497 1498 1498 1499 1500 1502 1503 1505 1506 1508 1509 1511 1512 1514 1516 1517 1519 1520 1522 1524 1525 1527 1529 1531 1532 1534 1536 1537 1539 1540 1542 1543 1545 1546 1547 1549 1550
1489 1490 1491 1492 1493 1494 1494 1495 1496 1496 1497 1499 1500 1501 1503 1504 1506 1508 1510 1512 1513 1515 1516 1518 1519 1521 1523 1524 1526 1528 1530 1531 1533 1535 1536 1538 1539 1540 1542 1543 1544 1546 1547 1548
1488 1489 1490 1490 1491 1492 1492 1493 1494 1495 1496 1497 1498 1499 1501 1502 1504 1506 1508 1510 1512 1513 1515 1517 1519 1520 1522 1523 1525 1527 1529 1530 1532 1533 1535 1536 1538 1539 1540 1541 1543 1544 1545 1546
1487 1488 1488 1489 1489 1490 1491 1491 1492 1493 1495 1496 1497 1498 1500 1501 1503 1505 1507 1509 1511 1513 1514 1516 1518 1520 1521 1522 1524 1526 1528 1529 1531 1532 1533 1535 1536 1537 1538 1539 1540 1541 1542 1543
1486 1486 1487 1487 1488 1488 1489 1490 1491 1492 1493 1494 1496 1497 1499 1500 1502 1504 1506 1508 1510 1512 1514 1516 1517 1519 1520 1522 1523 1525 1527 1528 1529 1531 1532 1533 1534 1535 1536 1537 1538 1539 1540 1541
1485 1485 1486 1486 1487 1487 1488 1489 1490 1491 1492 1494 1495 1497 1498 1500 1502 1504 1506 1508 1510 1511 1513 1515 1517 1519 1520 1522 1523 1525 1526 1527 1528 1529 1530 1531 1532 1533 1534 1535 1536 1537 1538 1539
1485 1485 1485 1485 1486 1487 1487 1488 1489 1491 1492 1493 1495 1497 1498 1500 1502 1504 1506 1508 1510 1512 1514 1515 1517 1519 1520 1521 1523 1524 1525 1526 1527 1528 1529 1530 1530 1531 1532 1533 1534 1535 1536 1537